Year,Month,Day,Hour,Minute,Value (Times are PST for temperature in C)
2021,04,17,12,42,20.00
2021,04,17,12,43,20.10
2021,04,17,12,44,20.20
2021,04,17,12,45,20.20
2021,04,17,12,46,20.20
2021,04,17,12,47,20.20
2021,04,17,12,48,20.30
2021,04,17,12,49,20.40
2021,04,17,12,50,20.50
2021,04,17,12,51,20.60
2021,04,17,12,52,20.60
2021,04,17,12,53,20.70
2021,04,17,12,54,20.80
2021,04,17,12,55,20.90
2021,04,17,12,56,21.10
2021,04,17,12,57,21.20
2021,04,17,12,58,21.30
2021,04,17,12,59,21.30
2021,04,17,13,00,21.30
2021,04,17,13,01,21.30
2021,04,17,13,02,21.40
2021,04,17,13,03,21.30
2021,04,17,13,04,21.30
2021,04,17,13,05,21.20
2021,04,17,13,06,21.20
2021,04,17,13,07,21.30
2021,04,17,13,08,21.20
2021,04,17,13,09,21.20
2021,04,17,13,10,21.30
2021,04,17,13,11,21.30
2021,04,17,13,12,21.20
2021,04,17,13,13,21.20
2021,04,17,13,14,21.20
2021,04,17,13,15,21.20
2021,04,17,13,16,21.10
2021,04,17,13,17,21.20
2021,04,17,13,18,21.20
2021,04,17,13,19,21.20
2021,04,17,13,20,21.20
2021,04,17,13,21,21.30
2021,04,17,13,22,21.30
2021,04,17,13,23,21.40
2021,04,17,13,24,21.40
2021,04,17,13,25,21.40
2021,04,17,13,26,21.30
2021,04,17,13,27,21.30
2021,04,17,13,28,21.30
2021,04,17,13,29,21.40
2021,04,17,13,30,21.40
2021,04,17,13,31,21.40
2021,04,17,13,32,21.50
2021,04,17,13,33,21.60
2021,04,17,13,34,21.70
2021,04,17,13,35,21.70
2021,04,17,13,36,21.70
2021,04,17,13,37,21.70
2021,04,17,13,38,21.60
2021,04,17,13,39,21.60
2021,04,17,13,40,21.60
2021,04,17,13,41,21.60
2021,04,17,13,42,21.60
2021,04,17,13,43,21.70
2021,04,17,13,44,21.60
2021,04,17,13,45,21.50
2021,04,17,13,46,21.40
2021,04,17,13,47,21.40
2021,04,17,13,48,21.40
2021,04,17,13,49,21.40
2021,04,17,13,50,21.40
2021,04,17,13,51,21.40
2021,04,17,13,52,21.40
2021,04,17,13,53,21.50
2021,04,17,13,54,21.60
2021,04,17,13,55,21.60
2021,04,17,13,56,21.70
2021,04,17,13,57,21.70
2021,04,17,13,58,21.70
2021,04,17,13,59,21.70
2021,04,17,14,00,21.70
2021,04,17,14,01,21.70
2021,04,17,14,02,21.70
2021,04,17,14,03,21.70
2021,04,17,14,04,21.80
2021,04,17,14,05,21.90
2021,04,17,14,06,21.80
2021,04,17,14,07,21.80
2021,04,17,14,08,21.90
2021,04,17,14,09,22.00
2021,04,17,14,10,22.00
2021,04,17,14,11,22.00
2021,04,17,14,12,22.00
2021,04,17,14,13,22.00
2021,04,17,14,14,22.00
2021,04,17,14,15,22.00
2021,04,17,14,16,22.00
2021,04,17,14,17,22.10
2021,04,17,14,18,22.10
2021,04,17,14,19,22.10
2021,04,17,14,20,22.10
2021,04,17,14,21,22.10
2021,04,17,14,22,22.10
2021,04,17,14,23,22.20
2021,04,17,14,24,22.10
2021,04,17,14,25,22.10
2021,04,17,14,26,22.20
2021,04,17,14,27,22.20
2021,04,17,14,28,22.20
2021,04,17,14,29,22.20
2021,04,17,14,30,22.20
2021,04,17,14,31,22.30
2021,04,17,14,32,22.40
2021,04,17,14,33,22.40
2021,04,17,14,34,22.50
2021,04,17,14,35,22.50
2021,04,17,14,36,22.50
2021,04,17,14,37,22.50
2021,04,17,14,38,22.60
2021,04,17,14,39,22.60
2021,04,17,14,40,22.60
2021,04,17,14,41,22.60
2021,04,17,14,42,22.60
2021,04,17,14,43,22.60
2021,04,17,14,44,22.60
2021,04,17,14,45,22.60
2021,04,17,14,46,22.70
2021,04,17,14,47,22.70
2021,04,17,14,48,22.80
2021,04,17,14,49,22.80
2021,04,17,14,50,22.80
2021,04,17,14,51,22.70
2021,04,17,14,52,22.70
2021,04,17,14,53,22.80
2021,04,17,14,54,22.80
2021,04,17,14,55,22.80
2021,04,17,14,56,22.80
2021,04,17,14,57,22.90
2021,04,17,14,58,22.90
2021,04,17,14,59,22.90
2021,04,17,15,00,23.00
2021,04,17,15,01,23.10
2021,04,17,15,02,23.10
2021,04,17,15,03,23.20
2021,04,17,15,04,23.10
2021,04,17,15,05,23.10
2021,04,17,15,06,23.10
2021,04,17,15,07,23.00
2021,04,17,15,08,22.90
2021,04,17,15,09,22.90
2021,04,17,15,10,22.80
2021,04,17,15,11,22.70
2021,04,17,15,12,22.70
2021,04,17,15,13,22.80
2021,04,17,15,14,22.90
2021,04,17,15,15,23.00
2021,04,17,15,16,22.90
2021,04,17,15,17,22.90
2021,04,17,15,18,22.80
2021,04,17,15,19,22.70
2021,04,17,15,20,22.60
2021,04,17,15,21,22.60
2021,04,17,15,22,22.60
2021,04,17,15,23,22.60
2021,04,17,15,24,22.60
2021,04,17,15,25,22.60
2021,04,17,15,26,22.60
2021,04,17,15,27,22.70
2021,04,17,15,28,22.70
2021,04,17,15,29,22.70
2021,04,17,15,30,22.70
2021,04,17,15,31,22.70
2021,04,17,15,32,22.70
2021,04,17,15,33,22.80
2021,04,17,15,34,22.80
2021,04,17,15,35,22.80
2021,04,17,15,36,22.80
2021,04,17,15,37,22.70
2021,04,17,15,38,22.70
2021,04,17,15,39,22.70
2021,04,17,15,40,22.70
2021,04,17,15,41,22.70
2021,04,17,15,42,22.80
2021,04,17,15,43,22.90
2021,04,17,15,44,22.90
2021,04,17,15,45,22.90
2021,04,17,15,46,22.90
2021,04,17,15,47,22.90
2021,04,17,15,48,23.00
2021,04,17,15,49,23.10
2021,04,17,15,50,23.10
2021,04,17,15,51,23.10
2021,04,17,15,52,23.10
2021,04,17,15,53,23.20
2021,04,17,15,54,23.30
2021,04,17,15,55,23.30
2021,04,17,15,56,23.30
2021,04,17,15,57,23.30
2021,04,17,15,58,23.20
2021,04,17,15,59,23.10
2021,04,17,16,00,23.10
2021,04,17,16,01,23.10
2021,04,17,16,02,23.20
2021,04,17,16,03,23.30
2021,04,17,16,04,23.30
2021,04,17,16,05,23.20
2021,04,17,16,06,23.00
2021,04,17,16,07,22.80
2021,04,17,16,08,22.70
2021,04,17,16,09,22.60
2021,04,17,16,10,22.60
2021,04,17,16,11,22.50
2021,04,17,16,12,22.30
2021,04,17,16,13,22.30
2021,04,17,16,14,22.10
2021,04,17,16,15,22.00
2021,04,17,16,16,22.00
2021,04,17,16,17,21.90
2021,04,17,16,18,21.80
2021,04,17,16,19,21.60
2021,04,17,16,20,21.60
2021,04,17,16,21,21.60
2021,04,17,16,22,21.60
2021,04,17,16,23,21.60
2021,04,17,16,24,21.70
2021,04,17,16,25,21.70
2021,04,17,16,26,21.70
2021,04,17,16,27,21.80
2021,04,17,16,28,21.90
2021,04,17,16,29,22.00
2021,04,17,16,30,22.10
2021,04,17,16,31,22.10
2021,04,17,16,32,22.10
2021,04,17,16,33,22.00
2021,04,17,16,34,22.00
2021,04,17,16,35,22.00
2021,04,17,16,36,22.10
2021,04,17,16,37,22.10
2021,04,17,16,38,22.10
2021,04,17,16,39,22.00
2021,04,17,16,40,22.00
2021,04,17,16,41,22.00
2021,04,17,16,42,22.00
2021,04,17,16,43,22.10
2021,04,17,16,44,22.10
2021,04,17,16,45,22.20
2021,04,17,16,46,22.10
2021,04,17,16,47,22.00
2021,04,17,16,48,22.00
2021,04,17,16,49,21.80
2021,04,17,16,50,21.70
2021,04,17,16,51,21.60
2021,04,17,16,52,21.60
2021,04,17,16,53,21.50
2021,04,17,16,54,21.60
2021,04,17,16,55,21.60
2021,04,17,16,56,21.60
2021,04,17,16,57,21.70
2021,04,17,16,58,21.70
2021,04,17,16,59,21.70
2021,04,17,17,00,21.60
2021,04,17,17,01,21.50
2021,04,17,17,02,21.50
2021,04,17,17,03,21.50
2021,04,17,17,04,21.50
2021,04,17,17,05,21.60
2021,04,17,17,06,21.60
2021,04,17,17,07,21.70
2021,04,17,17,08,21.80
2021,04,17,17,09,21.90
2021,04,17,17,10,21.90
2021,04,17,17,11,21.90
2021,04,17,17,12,21.90
2021,04,17,17,13,22.00
2021,04,17,17,14,22.10
2021,04,17,17,15,22.10
2021,04,17,17,16,22.20
2021,04,17,17,17,22.20
2021,04,17,17,18,22.20
2021,04,17,17,19,22.20
2021,04,17,17,20,22.20
2021,04,17,17,21,22.10
2021,04,17,17,22,22.10
2021,04,17,17,23,22.00
2021,04,17,17,24,21.90
2021,04,17,17,25,21.90
2021,04,17,17,26,21.90
2021,04,17,17,27,22.00
2021,04,17,17,28,22.00
2021,04,17,17,29,22.10
2021,04,17,17,30,22.10
2021,04,17,17,31,22.00
2021,04,17,17,32,22.00
2021,04,17,17,33,21.90
2021,04,17,17,34,21.80
2021,04,17,17,35,21.80
2021,04,17,17,36,21.70
2021,04,17,17,37,21.60
2021,04,17,17,38,21.60
2021,04,17,17,39,21.50
2021,04,17,17,40,21.50
2021,04,17,17,41,21.40
2021,04,17,17,42,21.40
2021,04,17,17,43,21.30
2021,04,17,17,44,21.30
2021,04,17,17,45,21.30
2021,04,17,17,46,21.30
2021,04,17,17,47,21.30
2021,04,17,17,48,21.40
2021,04,17,17,49,21.40
2021,04,17,17,50,21.50
2021,04,17,17,51,21.60
2021,04,17,17,52,21.70
2021,04,17,17,53,21.90
2021,04,17,17,54,21.90
2021,04,17,17,55,22.00
2021,04,17,17,56,22.00
2021,04,17,17,57,22.00
2021,04,17,17,58,21.90
2021,04,17,17,59,21.80
2021,04,17,18,00,21.80
2021,04,17,18,01,21.70
2021,04,17,18,02,21.70
2021,04,17,18,03,21.60
2021,04,17,18,04,21.60
2021,04,17,18,05,21.60
2021,04,17,18,06,21.60
2021,04,17,18,07,21.60
2021,04,17,18,08,21.60
2021,04,17,18,09,21.60
2021,04,17,18,10,21.60
2021,04,17,18,11,21.60
2021,04,17,18,12,21.60
2021,04,17,18,13,21.60
2021,04,17,18,14,21.60
2021,04,17,18,15,21.60
2021,04,17,18,16,21.70
2021,04,17,18,17,21.70
2021,04,17,18,18,21.70
2021,04,17,18,19,21.70
2021,04,17,18,20,21.70
2021,04,17,18,21,21.70
2021,04,17,18,22,21.70
2021,04,17,18,23,21.60
2021,04,17,18,24,21.60
2021,04,17,18,25,21.60
2021,04,17,18,26,21.50
2021,04,17,18,27,21.40
2021,04,17,18,28,21.30
2021,04,17,18,29,21.20
2021,04,17,18,30,21.10
2021,04,17,18,31,21.00
2021,04,17,18,32,20.90
2021,04,17,18,33,20.80
2021,04,17,18,34,20.70
2021,04,17,18,35,20.60
2021,04,17,18,36,20.50
2021,04,17,18,37,20.40
2021,04,17,18,38,20.30
2021,04,17,18,39,20.30
2021,04,17,18,40,20.20
2021,04,17,18,41,20.20
2021,04,17,18,42,20.10
2021,04,17,18,43,20.00
2021,04,17,18,44,20.00
2021,04,17,18,45,19.90
2021,04,17,18,46,19.80
2021,04,17,18,47,19.80
2021,04,17,18,48,19.80
2021,04,17,18,49,19.70
2021,04,17,18,50,19.70
2021,04,17,18,51,19.60
2021,04,17,18,52,19.60
2021,04,17,18,53,19.50
2021,04,17,18,54,19.50
2021,04,17,18,55,19.40
2021,04,17,18,56,19.30
2021,04,17,18,57,19.30
2021,04,17,18,58,19.30
2021,04,17,18,59,19.30
2021,04,17,19,00,19.30
2021,04,17,19,01,19.20
2021,04,17,19,02,19.20
2021,04,17,19,03,19.20
2021,04,17,19,04,19.30
2021,04,17,19,05,19.30
2021,04,17,19,06,19.30
2021,04,17,19,07,19.30
2021,04,17,19,08,19.30
2021,04,17,19,09,19.30
2021,04,17,19,10,19.30
2021,04,17,19,11,19.20
2021,04,17,19,12,19.20
2021,04,17,19,13,19.20
2021,04,17,19,14,19.10
2021,04,17,19,15,19.00
2021,04,17,19,16,19.00
2021,04,17,19,17,19.00
2021,04,17,19,18,18.90
2021,04,17,19,19,18.90
2021,04,17,19,20,18.90
2021,04,17,19,21,18.80
2021,04,17,19,22,18.80
2021,04,17,19,23,18.70
2021,04,17,19,24,18.70
2021,04,17,19,25,18.60
2021,04,17,19,26,18.60
2021,04,17,19,27,18.60
2021,04,17,19,28,18.60
2021,04,17,19,29,18.60
2021,04,17,19,30,18.60
2021,04,17,19,31,18.60
2021,04,17,19,32,18.60
2021,04,17,19,33,18.60
2021,04,17,19,34,18.60
2021,04,17,19,35,18.60
2021,04,17,19,36,18.60
2021,04,17,19,37,18.70
2021,04,17,19,38,18.70
2021,04,17,19,39,18.80
2021,04,17,19,40,18.80
2021,04,17,19,41,18.90
2021,04,17,19,42,18.90
2021,04,17,19,43,18.90
2021,04,17,19,44,18.90
2021,04,17,19,45,18.90
2021,04,17,19,46,19.00
2021,04,17,19,47,19.00
2021,04,17,19,48,19.00
2021,04,17,19,49,19.00
2021,04,17,19,50,18.90
2021,04,17,19,51,18.90
2021,04,17,19,52,18.80
2021,04,17,19,53,18.80
2021,04,17,19,54,18.70
2021,04,17,19,55,18.70
2021,04,17,19,56,18.60
2021,04,17,19,57,18.60
2021,04,17,19,58,18.60
2021,04,17,19,59,18.60
2021,04,17,20,00,18.60
2021,04,17,20,01,18.60
2021,04,17,20,02,18.60
2021,04,17,20,03,18.60
2021,04,17,20,04,18.60
2021,04,17,20,05,18.60
2021,04,17,20,06,18.60
2021,04,17,20,07,18.60
